Index of /20260502/WXO-DD/model_rdps/10km/12/040
Name Last modified Size Description
Parent Directory -
20260502T12Z_MSC_RDPS_AbsoluteVorticity_IsbL-0250_RLatLon0.09_PT040H.grib2 2026-05-02 14:51 625K
20260502T12Z_MSC_RDPS_AbsoluteVorticity_IsbL-0500_RLatLon0.09_PT040H.grib2 2026-05-02 14:51 569K
20260502T12Z_MSC_RDPS_AbsoluteVorticity_IsbL-0700_RLatLon0.09_PT040H.grib2 2026-05-02 14:51 619K
20260502T12Z_MSC_RDPS_AbsoluteVorticity_IsbL-0850_RLatLon0.09_PT040H.grib2 2026-05-02 14:51 784K
20260502T12Z_MSC_RDPS_AirTemp_AGL-120m_RLatLon0.09_PT040H.grib2 2026-05-02 14:51 385K
20260502T12Z_MSC_RDPS_AirTemp_AGL-2m_RLatLon0.09_PT040H.grib2 2026-05-02 14:51 623K
20260502T12Z_MSC_RDPS_AirTemp_AGL-40m_RLatLon0.09_PT040H.grib2 2026-05-02 14:51 400K
20260502T12Z_MSC_RDPS_AirTemp_AGL-80m_RLatLon0.09_PT040H.grib2 2026-05-02 14:51 391K
20260502T12Z_MSC_RDPS_AirTemp_IsbL-0001_RLatLon0.09_PT040H.grib2 2026-05-02 14:51 300K
20260502T12Z_MSC_RDPS_AirTemp_IsbL-0005_RLatLon0.09_PT040H.grib2 2026-05-02 14:51 290K
20260502T12Z_MSC_RDPS_AirTemp_IsbL-0010_RLatLon0.09_PT040H.grib2 2026-05-02 14:51 299K
20260502T12Z_MSC_RDPS_AirTemp_IsbL-0020_RLatLon0.09_PT040H.grib2 2026-05-02 14:51 315K
20260502T12Z_MSC_RDPS_AirTemp_IsbL-0030_RLatLon0.09_PT040H.grib2 2026-05-02 14:51 340K
20260502T12Z_MSC_RDPS_AirTemp_IsbL-0050_RLatLon0.09_PT040H.grib2 2026-05-02 14:51 316K
20260502T12Z_MSC_RDPS_AirTemp_IsbL-0100_RLatLon0.09_PT040H.grib2 2026-05-02 14:51 428K
20260502T12Z_MSC_RDPS_AirTemp_IsbL-0150_RLatLon0.09_PT040H.grib2 2026-05-02 14:51 422K
20260502T12Z_MSC_RDPS_AirTemp_IsbL-0175_RLatLon0.09_PT040H.grib2 2026-05-02 14:51 411K
20260502T12Z_MSC_RDPS_AirTemp_IsbL-0200_RLatLon0.09_PT040H.grib2 2026-05-02 14:51 417K
20260502T12Z_MSC_RDPS_AirTemp_IsbL-0225_RLatLon0.09_PT040H.grib2 2026-05-02 14:51 423K
20260502T12Z_MSC_RDPS_AirTemp_IsbL-0250_RLatLon0.09_PT040H.grib2 2026-05-02 14:51 430K
20260502T12Z_MSC_RDPS_AirTemp_IsbL-0275_RLatLon0.09_PT040H.grib2 2026-05-02 14:51 407K
20260502T12Z_MSC_RDPS_AirTemp_IsbL-0300_RLatLon0.09_PT040H.grib2 2026-05-02 14:51 410K
20260502T12Z_MSC_RDPS_AirTemp_IsbL-0350_RLatLon0.09_PT040H.grib2 2026-05-02 14:51 425K
20260502T12Z_MSC_RDPS_AirTemp_IsbL-0400_RLatLon0.09_PT040H.grib2 2026-05-02 14:51 394K
20260502T12Z_MSC_RDPS_AirTemp_IsbL-0450_RLatLon0.09_PT040H.grib2 2026-05-02 14:51 403K
20260502T12Z_MSC_RDPS_AirTemp_IsbL-0500_RLatLon0.09_PT040H.grib2 2026-05-02 14:51 413K
20260502T12Z_MSC_RDPS_AirTemp_IsbL-0550_RLatLon0.09_PT040H.grib2 2026-05-02 14:51 429K
20260502T12Z_MSC_RDPS_AirTemp_IsbL-0600_RLatLon0.09_PT040H.grib2 2026-05-02 14:51 443K
20260502T12Z_MSC_RDPS_AirTemp_IsbL-0650_RLatLon0.09_PT040H.grib2 2026-05-02 14:51 458K
20260502T12Z_MSC_RDPS_AirTemp_IsbL-0700_RLatLon0.09_PT040H.grib2 2026-05-02 14:51 374K
20260502T12Z_MSC_RDPS_AirTemp_IsbL-0750_RLatLon0.09_PT040H.grib2 2026-05-02 14:51 407K
20260502T12Z_MSC_RDPS_AirTemp_IsbL-0800_RLatLon0.09_PT040H.grib2 2026-05-02 14:51 453K
20260502T12Z_MSC_RDPS_AirTemp_IsbL-0850_RLatLon0.09_PT040H.grib2 2026-05-02 14:51 501K
20260502T12Z_MSC_RDPS_AirTemp_IsbL-0875_RLatLon0.09_PT040H.grib2 2026-05-02 14:51 517K
20260502T12Z_MSC_RDPS_AirTemp_IsbL-0900_RLatLon0.09_PT040H.grib2 2026-05-02 14:51 523K
20260502T12Z_MSC_RDPS_AirTemp_IsbL-0925_RLatLon0.09_PT040H.grib2 2026-05-02 14:51 517K
20260502T12Z_MSC_RDPS_AirTemp_IsbL-0950_RLatLon0.09_PT040H.grib2 2026-05-02 14:51 517K
20260502T12Z_MSC_RDPS_AirTemp_IsbL-0970_RLatLon0.09_PT040H.grib2 2026-05-02 14:51 510K
20260502T12Z_MSC_RDPS_AirTemp_IsbL-0985_RLatLon0.09_PT040H.grib2 2026-05-02 14:51 499K
20260502T12Z_MSC_RDPS_AirTemp_IsbL-1000_RLatLon0.09_PT040H.grib2 2026-05-02 14:51 484K
20260502T12Z_MSC_RDPS_AirTemp_IsbL-1015_RLatLon0.09_PT040H.grib2 2026-05-02 14:51 484K
20260502T12Z_MSC_RDPS_Albedo_Sfc_RLatLon0.09_PT040H.grib2 2026-05-02 14:51 157K
20260502T12Z_MSC_RDPS_CAPE_Sfc_RLatLon0.09_PT040H.grib2 2026-05-02 14:51 1.6M
20260502T12Z_MSC_RDPS_CIN_Sfc_RLatLon0.09_PT040H.grib2 2026-05-02 14:51 1.1M
20260502T12Z_MSC_RDPS_CloudWater_EAtm_RLatLon0.09_PT040H.grib2 2026-05-02 14:51 221K
20260502T12Z_MSC_RDPS_ConvectivePrecip-Accum_Sfc_RLatLon0.09_PT040H.grib2 2026-05-02 14:51 1.0M
20260502T12Z_MSC_RDPS_DewPointDepression_AGL-2m_RLatLon0.09_PT040H.grib2 2026-05-02 14:51 400K
20260502T12Z_MSC_RDPS_DewPointDepression_IsbL-0001_RLatLon0.09_PT040H.grib2 2026-05-02 14:51 193
20260502T12Z_MSC_RDPS_DewPointDepression_IsbL-0005_RLatLon0.09_PT040H.grib2 2026-05-02 14:51 193
20260502T12Z_MSC_RDPS_DewPointDepression_IsbL-0010_RLatLon0.09_PT040H.grib2 2026-05-02 14:51 193
20260502T12Z_MSC_RDPS_DewPointDepression_IsbL-0020_RLatLon0.09_PT040H.grib2 2026-05-02 14:51 193
20260502T12Z_MSC_RDPS_DewPointDepression_IsbL-0030_RLatLon0.09_PT040H.grib2 2026-05-02 14:51 193
20260502T12Z_MSC_RDPS_DewPointDepression_IsbL-0050_RLatLon0.09_PT040H.grib2 2026-05-02 14:51 76K
20260502T12Z_MSC_RDPS_DewPointDepression_IsbL-0100_RLatLon0.09_PT040H.grib2 2026-05-02 14:51 121K
20260502T12Z_MSC_RDPS_DewPointDepression_IsbL-0150_RLatLon0.09_PT040H.grib2 2026-05-02 14:51 146K
20260502T12Z_MSC_RDPS_DewPointDepression_IsbL-0175_RLatLon0.09_PT040H.grib2 2026-05-02 14:51 180K
20260502T12Z_MSC_RDPS_DewPointDepression_IsbL-0200_RLatLon0.09_PT040H.grib2 2026-05-02 14:51 221K
20260502T12Z_MSC_RDPS_DewPointDepression_IsbL-0225_RLatLon0.09_PT040H.grib2 2026-05-02 14:51 265K
20260502T12Z_MSC_RDPS_DewPointDepression_IsbL-0250_RLatLon0.09_PT040H.grib2 2026-05-02 14:51 304K
20260502T12Z_MSC_RDPS_DewPointDepression_IsbL-0275_RLatLon0.09_PT040H.grib2 2026-05-02 14:51 312K
20260502T12Z_MSC_RDPS_DewPointDepression_IsbL-0300_RLatLon0.09_PT040H.grib2 2026-05-02 14:51 329K
20260502T12Z_MSC_RDPS_DewPointDepression_IsbL-0350_RLatLon0.09_PT040H.grib2 2026-05-02 14:51 336K
20260502T12Z_MSC_RDPS_DewPointDepression_IsbL-0400_RLatLon0.09_PT040H.grib2 2026-05-02 14:51 344K
20260502T12Z_MSC_RDPS_DewPointDepression_IsbL-0450_RLatLon0.09_PT040H.grib2 2026-05-02 14:51 345K
20260502T12Z_MSC_RDPS_DewPointDepression_IsbL-0500_RLatLon0.09_PT040H.grib2 2026-05-02 14:51 349K
20260502T12Z_MSC_RDPS_DewPointDepression_IsbL-0550_RLatLon0.09_PT040H.grib2 2026-05-02 14:51 360K
20260502T12Z_MSC_RDPS_DewPointDepression_IsbL-0600_RLatLon0.09_PT040H.grib2 2026-05-02 14:51 370K
20260502T12Z_MSC_RDPS_DewPointDepression_IsbL-0650_RLatLon0.09_PT040H.grib2 2026-05-02 14:51 377K
20260502T12Z_MSC_RDPS_DewPointDepression_IsbL-0700_RLatLon0.09_PT040H.grib2 2026-05-02 14:51 387K
20260502T12Z_MSC_RDPS_DewPointDepression_IsbL-0750_RLatLon0.09_PT040H.grib2 2026-05-02 14:51 405K
20260502T12Z_MSC_RDPS_DewPointDepression_IsbL-0800_RLatLon0.09_PT040H.grib2 2026-05-02 14:51 444K
20260502T12Z_MSC_RDPS_DewPointDepression_IsbL-0850_RLatLon0.09_PT040H.grib2 2026-05-02 14:51 472K
20260502T12Z_MSC_RDPS_DewPointDepression_IsbL-0875_RLatLon0.09_PT040H.grib2 2026-05-02 14:51 471K
20260502T12Z_MSC_RDPS_DewPointDepression_IsbL-0900_RLatLon0.09_PT040H.grib2 2026-05-02 14:51 459K
20260502T12Z_MSC_RDPS_DewPointDepression_IsbL-0925_RLatLon0.09_PT040H.grib2 2026-05-02 14:51 446K
20260502T12Z_MSC_RDPS_DewPointDepression_IsbL-0950_RLatLon0.09_PT040H.grib2 2026-05-02 14:51 441K
20260502T12Z_MSC_RDPS_DewPointDepression_IsbL-0970_RLatLon0.09_PT040H.grib2 2026-05-02 14:51 432K
20260502T12Z_MSC_RDPS_DewPointDepression_IsbL-0985_RLatLon0.09_PT040H.grib2 2026-05-02 14:51 427K
20260502T12Z_MSC_RDPS_DewPointDepression_IsbL-1000_RLatLon0.09_PT040H.grib2 2026-05-02 14:51 423K
20260502T12Z_MSC_RDPS_DewPointDepression_IsbL-1015_RLatLon0.09_PT040H.grib2 2026-05-02 14:51 414K
20260502T12Z_MSC_RDPS_DewPoint_AGL-2m_RLatLon0.09_PT040H.grib2 2026-05-02 14:51 304K
20260502T12Z_MSC_RDPS_DownwardLongwaveRadiationFlux-Accum_Sfc_RLatLon0.09_PT040H.grib2 2026-05-02 14:51 386K
20260502T12Z_MSC_RDPS_DownwardShortwaveRadiationFlux-Accum_NTAtm_RLatLon0.09_PT040H.grib2 2026-05-02 14:51 149K
20260502T12Z_MSC_RDPS_DownwardShortwaveRadiationFlux-Accum_Sfc_RLatLon0.09_PT040H.grib2 2026-05-02 14:51 551K
20260502T12Z_MSC_RDPS_FreezingRain-Accum1h_Sfc_RLatLon0.09_PT040H.grib2 2026-05-02 14:51 37K
20260502T12Z_MSC_RDPS_FreezingRain-Accum_Sfc_RLatLon0.09_PT040H.grib2 2026-05-02 14:51 134K
20260502T12Z_MSC_RDPS_GeopotentialHeight_IsbL-0001_RLatLon0.09_PT040H.grib2 2026-05-02 14:51 236K
20260502T12Z_MSC_RDPS_GeopotentialHeight_IsbL-0005_RLatLon0.09_PT040H.grib2 2026-05-02 14:51 334K
20260502T12Z_MSC_RDPS_GeopotentialHeight_IsbL-0010_RLatLon0.09_PT040H.grib2 2026-05-02 14:51 301K
20260502T12Z_MSC_RDPS_GeopotentialHeight_IsbL-0020_RLatLon0.09_PT040H.grib2 2026-05-02 14:51 397K
20260502T12Z_MSC_RDPS_GeopotentialHeight_IsbL-0030_RLatLon0.09_PT040H.grib2 2026-05-02 14:51 400K
20260502T12Z_MSC_RDPS_GeopotentialHeight_IsbL-0050_RLatLon0.09_PT040H.grib2 2026-05-02 14:51 340K
20260502T12Z_MSC_RDPS_GeopotentialHeight_IsbL-0100_RLatLon0.09_PT040H.grib2 2026-05-02 14:51 287K
20260502T12Z_MSC_RDPS_GeopotentialHeight_IsbL-0150_RLatLon0.09_PT040H.grib2 2026-05-02 14:51 230K
20260502T12Z_MSC_RDPS_GeopotentialHeight_IsbL-0175_RLatLon0.09_PT040H.grib2 2026-05-02 14:51 232K
20260502T12Z_MSC_RDPS_GeopotentialHeight_IsbL-0200_RLatLon0.09_PT040H.grib2 2026-05-02 14:51 264K
20260502T12Z_MSC_RDPS_GeopotentialHeight_IsbL-0225_RLatLon0.09_PT040H.grib2 2026-05-02 14:51 265K
20260502T12Z_MSC_RDPS_GeopotentialHeight_IsbL-0250_RLatLon0.09_PT040H.grib2 2026-05-02 14:51 266K
20260502T12Z_MSC_RDPS_GeopotentialHeight_IsbL-0275_RLatLon0.09_PT040H.grib2 2026-05-02 14:51 265K
20260502T12Z_MSC_RDPS_GeopotentialHeight_IsbL-0300_RLatLon0.09_PT040H.grib2 2026-05-02 14:51 265K
20260502T12Z_MSC_RDPS_GeopotentialHeight_IsbL-0350_RLatLon0.09_PT040H.grib2 2026-05-02 14:51 230K
20260502T12Z_MSC_RDPS_GeopotentialHeight_IsbL-0400_RLatLon0.09_PT040H.grib2 2026-05-02 14:51 227K
20260502T12Z_MSC_RDPS_GeopotentialHeight_IsbL-0450_RLatLon0.09_PT040H.grib2 2026-05-02 14:51 297K
20260502T12Z_MSC_RDPS_GeopotentialHeight_IsbL-0500_RLatLon0.09_PT040H.grib2 2026-05-02 14:51 293K
20260502T12Z_MSC_RDPS_GeopotentialHeight_IsbL-0550_RLatLon0.09_PT040H.grib2 2026-05-02 14:51 289K
20260502T12Z_MSC_RDPS_GeopotentialHeight_IsbL-0600_RLatLon0.09_PT040H.grib2 2026-05-02 14:51 285K
20260502T12Z_MSC_RDPS_GeopotentialHeight_IsbL-0650_RLatLon0.09_PT040H.grib2 2026-05-02 14:51 283K
20260502T12Z_MSC_RDPS_GeopotentialHeight_IsbL-0700_RLatLon0.09_PT040H.grib2 2026-05-02 14:51 254K
20260502T12Z_MSC_RDPS_GeopotentialHeight_IsbL-0750_RLatLon0.09_PT040H.grib2 2026-05-02 14:51 256K
20260502T12Z_MSC_RDPS_GeopotentialHeight_IsbL-0800_RLatLon0.09_PT040H.grib2 2026-05-02 14:51 347K
20260502T12Z_MSC_RDPS_GeopotentialHeight_IsbL-0850_RLatLon0.09_PT040H.grib2 2026-05-02 14:51 355K
20260502T12Z_MSC_RDPS_GeopotentialHeight_IsbL-0875_RLatLon0.09_PT040H.grib2 2026-05-02 14:51 359K
20260502T12Z_MSC_RDPS_GeopotentialHeight_IsbL-0900_RLatLon0.09_PT040H.grib2 2026-05-02 14:51 361K
20260502T12Z_MSC_RDPS_GeopotentialHeight_IsbL-0925_RLatLon0.09_PT040H.grib2 2026-05-02 14:51 363K
20260502T12Z_MSC_RDPS_GeopotentialHeight_IsbL-0950_RLatLon0.09_PT040H.grib2 2026-05-02 14:51 366K
20260502T12Z_MSC_RDPS_GeopotentialHeight_IsbL-0970_RLatLon0.09_PT040H.grib2 2026-05-02 14:51 371K
20260502T12Z_MSC_RDPS_GeopotentialHeight_IsbL-0985_RLatLon0.09_PT040H.grib2 2026-05-02 14:51 291K
20260502T12Z_MSC_RDPS_GeopotentialHeight_IsbL-1000_RLatLon0.09_PT040H.grib2 2026-05-02 14:51 298K
20260502T12Z_MSC_RDPS_GeopotentialHeight_IsbL-1015_RLatLon0.09_PT040H.grib2 2026-05-02 14:51 309K
20260502T12Z_MSC_RDPS_Humidex_Sfc_RLatLon0.09_PT040H.grib2 2026-05-02 14:51 2.2M
20260502T12Z_MSC_RDPS_IcePellets-Accum1h_Sfc_RLatLon0.09_PT040H.grib2 2026-05-02 14:51 1.9K
20260502T12Z_MSC_RDPS_IcePellets-Accum_Sfc_RLatLon0.09_PT040H.grib2 2026-05-02 14:51 15K
20260502T12Z_MSC_RDPS_KIndex_Sfc_RLatLon0.09_PT040H.grib2 2026-05-02 14:51 2.5M
20260502T12Z_MSC_RDPS_LatentHeatNetFlux_Sfc_RLatLon0.09_PT040H.grib2 2026-05-02 14:51 412K
20260502T12Z_MSC_RDPS_LiftedIndex-MU-VT_IsbL-0500_RLatLon0.09_PT040H.grib2 2026-05-02 14:51 2.4M
20260502T12Z_MSC_RDPS_NetLongwaveRadiationFlux-Accum_Sfc_RLatLon0.09_PT040H.grib2 2026-05-02 14:51 527K
20260502T12Z_MSC_RDPS_NetShortwaveRadiationFlux-Accum_Sfc_RLatLon0.09_PT040H.grib2 2026-05-02 14:51 552K
20260502T12Z_MSC_RDPS_PlanetaryBoundaryLayerHeight_Sfc_RLatLon0.09_PT040H.grib2 2026-05-02 14:51 1.1M
20260502T12Z_MSC_RDPS_Precip-Accum1h_Sfc_RLatLon0.09_PT040H.grib2 2026-05-02 14:51 1.2M
20260502T12Z_MSC_RDPS_Precip-Accum_Sfc_RLatLon0.09_PT040H.grib2 2026-05-02 14:51 2.0M
20260502T12Z_MSC_RDPS_PrecipRate_Sfc_RLatLon0.09_PT040H.grib2 2026-05-02 14:51 160K
20260502T12Z_MSC_RDPS_PrecipType-Instant_Sfc_RLatLon0.09_PT040H.grib2 2026-05-02 14:51 580K
20260502T12Z_MSC_RDPS_Pressure-Trend3h_Sfc_RLatLon0.09_PT040H.grib2 2026-05-02 14:51 1.1M
20260502T12Z_MSC_RDPS_Pressure_MSL_RLatLon0.09_PT040H.grib2 2026-05-02 14:51 324K
20260502T12Z_MSC_RDPS_Pressure_PVU-1.5_RLatLon0.09_PT040H.grib2 2026-05-02 14:51 2.3M
20260502T12Z_MSC_RDPS_Pressure_PVU-1_RLatLon0.09_PT040H.grib2 2026-05-02 14:51 2.4M
20260502T12Z_MSC_RDPS_Pressure_PVU-2_RLatLon0.09_PT040H.grib2 2026-05-02 14:51 2.4M
20260502T12Z_MSC_RDPS_Pressure_Sfc_RLatLon0.09_PT040H.grib2 2026-05-02 14:51 498K
20260502T12Z_MSC_RDPS_RadiativeTemp_Sfc_RLatLon0.09_PT040H.grib2 2026-05-02 14:51 302K
20260502T12Z_MSC_RDPS_Rain-Accum1h_Sfc_RLatLon0.09_PT040H.grib2 2026-05-02 14:51 533K
20260502T12Z_MSC_RDPS_Rain-Accum_Sfc_RLatLon0.09_PT040H.grib2 2026-05-02 14:51 1.6M
20260502T12Z_MSC_RDPS_RelativeHumidity_AGL-2m_RLatLon0.09_PT040H.grib2 2026-05-02 14:51 1.0M
20260502T12Z_MSC_RDPS_RelativeHumidity_IsbL-0010_RLatLon0.09_PT040H.grib2 2026-05-02 14:51 620K
20260502T12Z_MSC_RDPS_RelativeHumidity_IsbL-0020_RLatLon0.09_PT040H.grib2 2026-05-02 14:51 667K
20260502T12Z_MSC_RDPS_RelativeHumidity_IsbL-0030_RLatLon0.09_PT040H.grib2 2026-05-02 14:51 604K
20260502T12Z_MSC_RDPS_RelativeHumidity_IsbL-0050_RLatLon0.09_PT040H.grib2 2026-05-02 14:51 308K
20260502T12Z_MSC_RDPS_RelativeHumidity_IsbL-0100_RLatLon0.09_PT040H.grib2 2026-05-02 14:51 280K
20260502T12Z_MSC_RDPS_RelativeHumidity_IsbL-0150_RLatLon0.09_PT040H.grib2 2026-05-02 14:51 416K
20260502T12Z_MSC_RDPS_RelativeHumidity_IsbL-0175_RLatLon0.09_PT040H.grib2 2026-05-02 14:51 475K
20260502T12Z_MSC_RDPS_RelativeHumidity_IsbL-0200_RLatLon0.09_PT040H.grib2 2026-05-02 14:51 552K
20260502T12Z_MSC_RDPS_RelativeHumidity_IsbL-0225_RLatLon0.09_PT040H.grib2 2026-05-02 14:51 626K
20260502T12Z_MSC_RDPS_RelativeHumidity_IsbL-0250_RLatLon0.09_PT040H.grib2 2026-05-02 14:51 697K
20260502T12Z_MSC_RDPS_RelativeHumidity_IsbL-0275_RLatLon0.09_PT040H.grib2 2026-05-02 14:51 720K
20260502T12Z_MSC_RDPS_RelativeHumidity_IsbL-0300_RLatLon0.09_PT040H.grib2 2026-05-02 14:51 755K
20260502T12Z_MSC_RDPS_RelativeHumidity_IsbL-0350_RLatLon0.09_PT040H.grib2 2026-05-02 14:51 781K
20260502T12Z_MSC_RDPS_RelativeHumidity_IsbL-0400_RLatLon0.09_PT040H.grib2 2026-05-02 14:51 792K
20260502T12Z_MSC_RDPS_RelativeHumidity_IsbL-0450_RLatLon0.09_PT040H.grib2 2026-05-02 14:51 793K
20260502T12Z_MSC_RDPS_RelativeHumidity_IsbL-0500_RLatLon0.09_PT040H.grib2 2026-05-02 14:51 797K
20260502T12Z_MSC_RDPS_RelativeHumidity_IsbL-0550_RLatLon0.09_PT040H.grib2 2026-05-02 14:51 817K
20260502T12Z_MSC_RDPS_RelativeHumidity_IsbL-0600_RLatLon0.09_PT040H.grib2 2026-05-02 14:51 844K
20260502T12Z_MSC_RDPS_RelativeHumidity_IsbL-0650_RLatLon0.09_PT040H.grib2 2026-05-02 14:51 855K
20260502T12Z_MSC_RDPS_RelativeHumidity_IsbL-0700_RLatLon0.09_PT040H.grib2 2026-05-02 14:51 868K
20260502T12Z_MSC_RDPS_RelativeHumidity_IsbL-0750_RLatLon0.09_PT040H.grib2 2026-05-02 14:51 916K
20260502T12Z_MSC_RDPS_RelativeHumidity_IsbL-0800_RLatLon0.09_PT040H.grib2 2026-05-02 14:51 1.0M
20260502T12Z_MSC_RDPS_RelativeHumidity_IsbL-0850_RLatLon0.09_PT040H.grib2 2026-05-02 14:51 1.0M
20260502T12Z_MSC_RDPS_RelativeHumidity_IsbL-0875_RLatLon0.09_PT040H.grib2 2026-05-02 14:51 1.1M
20260502T12Z_MSC_RDPS_RelativeHumidity_IsbL-0900_RLatLon0.09_PT040H.grib2 2026-05-02 14:51 1.1M
20260502T12Z_MSC_RDPS_RelativeHumidity_IsbL-0925_RLatLon0.09_PT040H.grib2 2026-05-02 14:51 1.1M
20260502T12Z_MSC_RDPS_RelativeHumidity_IsbL-0950_RLatLon0.09_PT040H.grib2 2026-05-02 14:51 1.0M
20260502T12Z_MSC_RDPS_RelativeHumidity_IsbL-0970_RLatLon0.09_PT040H.grib2 2026-05-02 14:51 1.0M
20260502T12Z_MSC_RDPS_RelativeHumidity_IsbL-0985_RLatLon0.09_PT040H.grib2 2026-05-02 14:51 1.0M
20260502T12Z_MSC_RDPS_RelativeHumidity_IsbL-1000_RLatLon0.09_PT040H.grib2 2026-05-02 14:51 1.0M
20260502T12Z_MSC_RDPS_RelativeHumidity_IsbL-1015_RLatLon0.09_PT040H.grib2 2026-05-02 14:51 1.0M
20260502T12Z_MSC_RDPS_Runoff-Accum_Sfc_RLatLon0.09_PT040H.grib2 2026-05-02 14:51 69K
20260502T12Z_MSC_RDPS_SWEATIndex_Sfc_RLatLon0.09_PT040H.grib2 2026-05-02 14:51 2.4M
20260502T12Z_MSC_RDPS_SeeingIndex_EAtm_RLatLon0.09_PT040H.grib2 2026-05-02 14:51 1.0M
20260502T12Z_MSC_RDPS_SensibleHeatNetFlux_Sfc_RLatLon0.09_PT040H.grib2 2026-05-02 14:51 289K
20260502T12Z_MSC_RDPS_ShowalterIndex_IsbL-0500_RLatLon0.09_PT040H.grib2 2026-05-02 14:51 2.6M
20260502T12Z_MSC_RDPS_SkyTransparencyIndex_EAtm_RLatLon0.09_PT040H.grib2 2026-05-02 14:51 719K
20260502T12Z_MSC_RDPS_Snow-Accum1h_Sfc_RLatLon0.09_PT040H.grib2 2026-05-02 14:51 513K
20260502T12Z_MSC_RDPS_Snow-Accum_Sfc_RLatLon0.09_PT040H.grib2 2026-05-02 14:51 748K
20260502T12Z_MSC_RDPS_SnowDensity_Sfc_RLatLon0.09_PT040H.grib2 2026-05-02 14:51 170K
20260502T12Z_MSC_RDPS_SnowDepth_Sfc_RLatLon0.09_PT040H.grib2 2026-05-02 14:51 649K
20260502T12Z_MSC_RDPS_SoilTemp_DBS-0to10cm_RLatLon0.09_PT040H.grib2 2026-05-02 14:51 240K
20260502T12Z_MSC_RDPS_SoilTemp_Sfc_RLatLon0.09_PT040H.grib2 2026-05-02 14:51 272K
20260502T12Z_MSC_RDPS_SoilVolumetricIceContent_Sfc_RLatLon0.09_PT040H.grib2 2026-05-02 14:51 156K
20260502T12Z_MSC_RDPS_SoilVolumetricWaterContent_DBS-0to10cm_RLatLon0.09_PT040H.grib2 2026-05-02 14:51 274K
20260502T12Z_MSC_RDPS_SoilVolumetricWaterContent_DBS-0to1cm_RLatLon0.09_PT040H.grib2 2026-05-02 14:51 341K
20260502T12Z_MSC_RDPS_SpecificHumidity_AGL-120m_RLatLon0.09_PT040H.grib2 2026-05-02 14:51 483K
20260502T12Z_MSC_RDPS_SpecificHumidity_AGL-2m_RLatLon0.09_PT040H.grib2 2026-05-02 14:51 652K
20260502T12Z_MSC_RDPS_SpecificHumidity_AGL-40m_RLatLon0.09_PT040H.grib2 2026-05-02 14:51 490K
20260502T12Z_MSC_RDPS_SpecificHumidity_AGL-80m_RLatLon0.09_PT040H.grib2 2026-05-02 14:51 485K
20260502T12Z_MSC_RDPS_SpecificHumidity_IsbL-0001_RLatLon0.09_PT040H.grib2 2026-05-02 14:51 357K
20260502T12Z_MSC_RDPS_SpecificHumidity_IsbL-0005_RLatLon0.09_PT040H.grib2 2026-05-02 14:51 366K
20260502T12Z_MSC_RDPS_SpecificHumidity_IsbL-0010_RLatLon0.09_PT040H.grib2 2026-05-02 14:51 402K
20260502T12Z_MSC_RDPS_SpecificHumidity_IsbL-0020_RLatLon0.09_PT040H.grib2 2026-05-02 14:51 380K
20260502T12Z_MSC_RDPS_SpecificHumidity_IsbL-0030_RLatLon0.09_PT040H.grib2 2026-05-02 14:51 373K
20260502T12Z_MSC_RDPS_SpecificHumidity_IsbL-0050_RLatLon0.09_PT040H.grib2 2026-05-02 14:51 484K
20260502T12Z_MSC_RDPS_SpecificHumidity_IsbL-0100_RLatLon0.09_PT040H.grib2 2026-05-02 14:51 449K
20260502T12Z_MSC_RDPS_SpecificHumidity_IsbL-0150_RLatLon0.09_PT040H.grib2 2026-05-02 14:51 453K
20260502T12Z_MSC_RDPS_SpecificHumidity_IsbL-0175_RLatLon0.09_PT040H.grib2 2026-05-02 14:51 439K
20260502T12Z_MSC_RDPS_SpecificHumidity_IsbL-0200_RLatLon0.09_PT040H.grib2 2026-05-02 14:51 457K
20260502T12Z_MSC_RDPS_SpecificHumidity_IsbL-0225_RLatLon0.09_PT040H.grib2 2026-05-02 14:51 463K
20260502T12Z_MSC_RDPS_SpecificHumidity_IsbL-0250_RLatLon0.09_PT040H.grib2 2026-05-02 14:51 527K
20260502T12Z_MSC_RDPS_SpecificHumidity_IsbL-0275_RLatLon0.09_PT040H.grib2 2026-05-02 14:51 485K
20260502T12Z_MSC_RDPS_SpecificHumidity_IsbL-0300_RLatLon0.09_PT040H.grib2 2026-05-02 14:51 455K
20260502T12Z_MSC_RDPS_SpecificHumidity_IsbL-0350_RLatLon0.09_PT040H.grib2 2026-05-02 14:51 452K
20260502T12Z_MSC_RDPS_SpecificHumidity_IsbL-0400_RLatLon0.09_PT040H.grib2 2026-05-02 14:51 529K
20260502T12Z_MSC_RDPS_SpecificHumidity_IsbL-0450_RLatLon0.09_PT040H.grib2 2026-05-02 14:51 574K
20260502T12Z_MSC_RDPS_SpecificHumidity_IsbL-0500_RLatLon0.09_PT040H.grib2 2026-05-02 14:51 509K
20260502T12Z_MSC_RDPS_SpecificHumidity_IsbL-0550_RLatLon0.09_PT040H.grib2 2026-05-02 14:51 583K
20260502T12Z_MSC_RDPS_SpecificHumidity_IsbL-0600_RLatLon0.09_PT040H.grib2 2026-05-02 14:51 632K
20260502T12Z_MSC_RDPS_SpecificHumidity_IsbL-0650_RLatLon0.09_PT040H.grib2 2026-05-02 14:51 548K
20260502T12Z_MSC_RDPS_SpecificHumidity_IsbL-0700_RLatLon0.09_PT040H.grib2 2026-05-02 14:51 590K
20260502T12Z_MSC_RDPS_SpecificHumidity_IsbL-0750_RLatLon0.09_PT040H.grib2 2026-05-02 14:51 644K
20260502T12Z_MSC_RDPS_SpecificHumidity_IsbL-0800_RLatLon0.09_PT040H.grib2 2026-05-02 14:51 730K
20260502T12Z_MSC_RDPS_SpecificHumidity_IsbL-0850_RLatLon0.09_PT040H.grib2 2026-05-02 14:51 804K
20260502T12Z_MSC_RDPS_SpecificHumidity_IsbL-0875_RLatLon0.09_PT040H.grib2 2026-05-02 14:51 829K
20260502T12Z_MSC_RDPS_SpecificHumidity_IsbL-0900_RLatLon0.09_PT040H.grib2 2026-05-02 14:51 839K
20260502T12Z_MSC_RDPS_SpecificHumidity_IsbL-0925_RLatLon0.09_PT040H.grib2 2026-05-02 14:51 700K
20260502T12Z_MSC_RDPS_SpecificHumidity_IsbL-0950_RLatLon0.09_PT040H.grib2 2026-05-02 14:51 699K
20260502T12Z_MSC_RDPS_SpecificHumidity_IsbL-0970_RLatLon0.09_PT040H.grib2 2026-05-02 14:51 689K
20260502T12Z_MSC_RDPS_SpecificHumidity_IsbL-0985_RLatLon0.09_PT040H.grib2 2026-05-02 14:51 682K
20260502T12Z_MSC_RDPS_SpecificHumidity_IsbL-1000_RLatLon0.09_PT040H.grib2 2026-05-02 14:51 676K
20260502T12Z_MSC_RDPS_SpecificHumidity_IsbL-1015_RLatLon0.09_PT040H.grib2 2026-05-02 14:51 666K
20260502T12Z_MSC_RDPS_SpecificHumidity_Sfc_RLatLon0.09_PT040H.grib2 2026-05-02 14:51 300K
20260502T12Z_MSC_RDPS_StormRelativeHelicity_EtaL-10000_RLatLon0.09_PT040H.grib2 2026-05-02 14:51 1.1M
20260502T12Z_MSC_RDPS_StormSeverityIndex_EtaL-10000_RLatLon0.09_PT040H.grib2 2026-05-02 14:51 1.2M
20260502T12Z_MSC_RDPS_Thickness_IsbL-0850to0700_RLatLon0.09_PT040H.grib2 2026-05-02 14:51 175K
20260502T12Z_MSC_RDPS_Thickness_IsbL-1000to0500_RLatLon0.09_PT040H.grib2 2026-05-02 14:51 194K
20260502T12Z_MSC_RDPS_Thickness_IsbL-1000to0850_RLatLon0.09_PT040H.grib2 2026-05-02 14:51 259K
20260502T12Z_MSC_RDPS_TotalCloudCover_Sfc_RLatLon0.09_PT040H.grib2 2026-05-02 14:51 665K
20260502T12Z_MSC_RDPS_TotalTotalsIndex_Sfc_RLatLon0.09_PT040H.grib2 2026-05-02 14:51 2.4M
20260502T12Z_MSC_RDPS_UVIndex-ClearSky_Sfc_RLatLon0.09_PT040H.grib2 2026-05-02 14:51 117K
20260502T12Z_MSC_RDPS_UVIndex_Sfc_RLatLon0.09_PT040H.grib2 2026-05-02 14:51 205K
20260502T12Z_MSC_RDPS_UpwardLongwaveRadiationFlux_NTAtm_RLatLon0.09_PT040H.grib2 2026-05-02 14:51 489K
20260502T12Z_MSC_RDPS_UpwardShortwaveRadiationFlux_NTAtm_RLatLon0.09_PT040H.grib2 2026-05-02 14:51 166K
20260502T12Z_MSC_RDPS_VerticalVelocity_IsbL-0250_RLatLon0.09_PT040H.grib2 2026-05-02 14:51 437K
20260502T12Z_MSC_RDPS_VerticalVelocity_IsbL-0500_RLatLon0.09_PT040H.grib2 2026-05-02 14:51 545K
20260502T12Z_MSC_RDPS_VerticalVelocity_IsbL-0700_RLatLon0.09_PT040H.grib2 2026-05-02 14:51 593K
20260502T12Z_MSC_RDPS_VerticalVelocity_IsbL-0850_RLatLon0.09_PT040H.grib2 2026-05-02 14:51 699K
20260502T12Z_MSC_RDPS_VerticalWindShear_EtaL-6500_RLatLon0.09_PT040H.grib2 2026-05-02 14:51 1.2M
20260502T12Z_MSC_RDPS_WindChill_Sfc_RLatLon0.09_PT040H.grib2 2026-05-02 14:51 1.1M
20260502T12Z_MSC_RDPS_WindDir_AGL-10m_RLatLon0.09_PT040H.grib2 2026-05-02 14:51 968K
20260502T12Z_MSC_RDPS_WindDir_AGL-120m_RLatLon0.09_PT040H.grib2 2026-05-02 14:51 600K
20260502T12Z_MSC_RDPS_WindDir_AGL-40m_RLatLon0.09_PT040H.grib2 2026-05-02 14:51 634K
20260502T12Z_MSC_RDPS_WindDir_AGL-80m_RLatLon0.09_PT040H.grib2 2026-05-02 14:51 613K
20260502T12Z_MSC_RDPS_WindDir_IsbL-0001_RLatLon0.09_PT040H.grib2 2026-05-02 14:51 307K
20260502T12Z_MSC_RDPS_WindDir_IsbL-0005_RLatLon0.09_PT040H.grib2 2026-05-02 14:51 372K
20260502T12Z_MSC_RDPS_WindDir_IsbL-0010_RLatLon0.09_PT040H.grib2 2026-05-02 14:51 400K
20260502T12Z_MSC_RDPS_WindDir_IsbL-0020_RLatLon0.09_PT040H.grib2 2026-05-02 14:51 436K
20260502T12Z_MSC_RDPS_WindDir_IsbL-0030_RLatLon0.09_PT040H.grib2 2026-05-02 14:51 422K
20260502T12Z_MSC_RDPS_WindDir_IsbL-0050_RLatLon0.09_PT040H.grib2 2026-05-02 14:51 415K
20260502T12Z_MSC_RDPS_WindDir_IsbL-0100_RLatLon0.09_PT040H.grib2 2026-05-02 14:51 412K
20260502T12Z_MSC_RDPS_WindDir_IsbL-0150_RLatLon0.09_PT040H.grib2 2026-05-02 14:51 415K
20260502T12Z_MSC_RDPS_WindDir_IsbL-0175_RLatLon0.09_PT040H.grib2 2026-05-02 14:51 436K
20260502T12Z_MSC_RDPS_WindDir_IsbL-0200_RLatLon0.09_PT040H.grib2 2026-05-02 14:51 452K
20260502T12Z_MSC_RDPS_WindDir_IsbL-0225_RLatLon0.09_PT040H.grib2 2026-05-02 14:51 462K
20260502T12Z_MSC_RDPS_WindDir_IsbL-0250_RLatLon0.09_PT040H.grib2 2026-05-02 14:51 461K
20260502T12Z_MSC_RDPS_WindDir_IsbL-0275_RLatLon0.09_PT040H.grib2 2026-05-02 14:51 480K
20260502T12Z_MSC_RDPS_WindDir_IsbL-0300_RLatLon0.09_PT040H.grib2 2026-05-02 14:51 475K
20260502T12Z_MSC_RDPS_WindDir_IsbL-0350_RLatLon0.09_PT040H.grib2 2026-05-02 14:51 496K
20260502T12Z_MSC_RDPS_WindDir_IsbL-0400_RLatLon0.09_PT040H.grib2 2026-05-02 14:51 522K
20260502T12Z_MSC_RDPS_WindDir_IsbL-0450_RLatLon0.09_PT040H.grib2 2026-05-02 14:51 525K
20260502T12Z_MSC_RDPS_WindDir_IsbL-0500_RLatLon0.09_PT040H.grib2 2026-05-02 14:51 529K
20260502T12Z_MSC_RDPS_WindDir_IsbL-0550_RLatLon0.09_PT040H.grib2 2026-05-02 14:51 541K
20260502T12Z_MSC_RDPS_WindDir_IsbL-0600_RLatLon0.09_PT040H.grib2 2026-05-02 14:51 567K
20260502T12Z_MSC_RDPS_WindDir_IsbL-0650_RLatLon0.09_PT040H.grib2 2026-05-02 14:51 602K
20260502T12Z_MSC_RDPS_WindDir_IsbL-0700_RLatLon0.09_PT040H.grib2 2026-05-02 14:51 645K
20260502T12Z_MSC_RDPS_WindDir_IsbL-0750_RLatLon0.09_PT040H.grib2 2026-05-02 14:51 692K
20260502T12Z_MSC_RDPS_WindDir_IsbL-0800_RLatLon0.09_PT040H.grib2 2026-05-02 14:51 766K
20260502T12Z_MSC_RDPS_WindDir_IsbL-0850_RLatLon0.09_PT040H.grib2 2026-05-02 14:51 853K
20260502T12Z_MSC_RDPS_WindDir_IsbL-0875_RLatLon0.09_PT040H.grib2 2026-05-02 14:51 887K
20260502T12Z_MSC_RDPS_WindDir_IsbL-0900_RLatLon0.09_PT040H.grib2 2026-05-02 14:51 903K
20260502T12Z_MSC_RDPS_WindDir_IsbL-0925_RLatLon0.09_PT040H.grib2 2026-05-02 14:51 912K
20260502T12Z_MSC_RDPS_WindDir_IsbL-0950_RLatLon0.09_PT040H.grib2 2026-05-02 14:51 913K
20260502T12Z_MSC_RDPS_WindDir_IsbL-0970_RLatLon0.09_PT040H.grib2 2026-05-02 14:51 918K
20260502T12Z_MSC_RDPS_WindDir_IsbL-0985_RLatLon0.09_PT040H.grib2 2026-05-02 14:51 926K
20260502T12Z_MSC_RDPS_WindDir_IsbL-1000_RLatLon0.09_PT040H.grib2 2026-05-02 14:51 942K
20260502T12Z_MSC_RDPS_WindDir_IsbL-1015_RLatLon0.09_PT040H.grib2 2026-05-02 14:51 958K
20260502T12Z_MSC_RDPS_WindGust-Max_AGL-10m_RLatLon0.09_PT040H.grib2 2026-05-02 14:51 1.0M
20260502T12Z_MSC_RDPS_WindGust-Min_AGL-10m_RLatLon0.09_PT040H.grib2 2026-05-02 14:51 964K
20260502T12Z_MSC_RDPS_WindGust_AGL-10m_RLatLon0.09_PT040H.grib2 2026-05-02 14:51 1.0M
20260502T12Z_MSC_RDPS_WindSpeed_AGL-10m_RLatLon0.09_PT040H.grib2 2026-05-02 14:51 835K
20260502T12Z_MSC_RDPS_WindSpeed_AGL-120m_RLatLon0.09_PT040H.grib2 2026-05-02 14:51 546K
20260502T12Z_MSC_RDPS_WindSpeed_AGL-40m_RLatLon0.09_PT040H.grib2 2026-05-02 14:51 538K
20260502T12Z_MSC_RDPS_WindSpeed_AGL-80m_RLatLon0.09_PT040H.grib2 2026-05-02 14:51 548K
20260502T12Z_MSC_RDPS_WindSpeed_IsbL-0001_RLatLon0.09_PT040H.grib2 2026-05-02 14:51 256K
20260502T12Z_MSC_RDPS_WindSpeed_IsbL-0005_RLatLon0.09_PT040H.grib2 2026-05-02 14:51 382K
20260502T12Z_MSC_RDPS_WindSpeed_IsbL-0010_RLatLon0.09_PT040H.grib2 2026-05-02 14:51 365K
20260502T12Z_MSC_RDPS_WindSpeed_IsbL-0020_RLatLon0.09_PT040H.grib2 2026-05-02 14:51 322K
20260502T12Z_MSC_RDPS_WindSpeed_IsbL-0030_RLatLon0.09_PT040H.grib2 2026-05-02 14:51 324K
20260502T12Z_MSC_RDPS_WindSpeed_IsbL-0050_RLatLon0.09_PT040H.grib2 2026-05-02 14:51 356K
20260502T12Z_MSC_RDPS_WindSpeed_IsbL-0100_RLatLon0.09_PT040H.grib2 2026-05-02 14:51 480K
20260502T12Z_MSC_RDPS_WindSpeed_IsbL-0150_RLatLon0.09_PT040H.grib2 2026-05-02 14:51 388K
20260502T12Z_MSC_RDPS_WindSpeed_IsbL-0175_RLatLon0.09_PT040H.grib2 2026-05-02 14:51 433K
20260502T12Z_MSC_RDPS_WindSpeed_IsbL-0200_RLatLon0.09_PT040H.grib2 2026-05-02 14:51 448K
20260502T12Z_MSC_RDPS_WindSpeed_IsbL-0225_RLatLon0.09_PT040H.grib2 2026-05-02 14:51 456K
20260502T12Z_MSC_RDPS_WindSpeed_IsbL-0250_RLatLon0.09_PT040H.grib2 2026-05-02 14:51 459K
20260502T12Z_MSC_RDPS_WindSpeed_IsbL-0275_RLatLon0.09_PT040H.grib2 2026-05-02 14:51 476K
20260502T12Z_MSC_RDPS_WindSpeed_IsbL-0300_RLatLon0.09_PT040H.grib2 2026-05-02 14:51 471K
20260502T12Z_MSC_RDPS_WindSpeed_IsbL-0350_RLatLon0.09_PT040H.grib2 2026-05-02 14:51 480K
20260502T12Z_MSC_RDPS_WindSpeed_IsbL-0400_RLatLon0.09_PT040H.grib2 2026-05-02 14:51 483K
20260502T12Z_MSC_RDPS_WindSpeed_IsbL-0450_RLatLon0.09_PT040H.grib2 2026-05-02 14:51 467K
20260502T12Z_MSC_RDPS_WindSpeed_IsbL-0500_RLatLon0.09_PT040H.grib2 2026-05-02 14:51 467K
20260502T12Z_MSC_RDPS_WindSpeed_IsbL-0550_RLatLon0.09_PT040H.grib2 2026-05-02 14:51 466K
20260502T12Z_MSC_RDPS_WindSpeed_IsbL-0600_RLatLon0.09_PT040H.grib2 2026-05-02 14:51 591K
20260502T12Z_MSC_RDPS_WindSpeed_IsbL-0650_RLatLon0.09_PT040H.grib2 2026-05-02 14:51 609K
20260502T12Z_MSC_RDPS_WindSpeed_IsbL-0700_RLatLon0.09_PT040H.grib2 2026-05-02 14:51 632K
20260502T12Z_MSC_RDPS_WindSpeed_IsbL-0750_RLatLon0.09_PT040H.grib2 2026-05-02 14:51 707K
20260502T12Z_MSC_RDPS_WindSpeed_IsbL-0800_RLatLon0.09_PT040H.grib2 2026-05-02 14:51 759K
20260502T12Z_MSC_RDPS_WindSpeed_IsbL-0850_RLatLon0.09_PT040H.grib2 2026-05-02 14:51 772K
20260502T12Z_MSC_RDPS_WindSpeed_IsbL-0875_RLatLon0.09_PT040H.grib2 2026-05-02 14:51 796K
20260502T12Z_MSC_RDPS_WindSpeed_IsbL-0900_RLatLon0.09_PT040H.grib2 2026-05-02 14:51 853K
20260502T12Z_MSC_RDPS_WindSpeed_IsbL-0925_RLatLon0.09_PT040H.grib2 2026-05-02 14:51 864K
20260502T12Z_MSC_RDPS_WindSpeed_IsbL-0950_RLatLon0.09_PT040H.grib2 2026-05-02 14:51 864K
20260502T12Z_MSC_RDPS_WindSpeed_IsbL-0970_RLatLon0.09_PT040H.grib2 2026-05-02 14:51 863K
20260502T12Z_MSC_RDPS_WindSpeed_IsbL-0985_RLatLon0.09_PT040H.grib2 2026-05-02 14:51 857K
20260502T12Z_MSC_RDPS_WindSpeed_IsbL-1000_RLatLon0.09_PT040H.grib2 2026-05-02 14:51 846K
20260502T12Z_MSC_RDPS_WindSpeed_IsbL-1015_RLatLon0.09_PT040H.grib2 2026-05-02 14:51 835K
20260502T12Z_MSC_RDPS_WindU_AGL-10m_RLatLon0.09_PT040H.grib2 2026-05-02 14:51 428K
20260502T12Z_MSC_RDPS_WindU_AGL-120m_RLatLon0.09_PT040H.grib2 2026-05-02 14:51 415K
20260502T12Z_MSC_RDPS_WindU_AGL-40m_RLatLon0.09_PT040H.grib2 2026-05-02 14:51 418K
20260502T12Z_MSC_RDPS_WindU_AGL-80m_RLatLon0.09_PT040H.grib2 2026-05-02 14:51 417K
20260502T12Z_MSC_RDPS_WindU_IsbL-0001_RLatLon0.09_PT040H.grib2 2026-05-02 14:51 245K
20260502T12Z_MSC_RDPS_WindU_IsbL-0005_RLatLon0.09_PT040H.grib2 2026-05-02 14:51 285K
20260502T12Z_MSC_RDPS_WindU_IsbL-0010_RLatLon0.09_PT040H.grib2 2026-05-02 14:51 298K
20260502T12Z_MSC_RDPS_WindU_IsbL-0020_RLatLon0.09_PT040H.grib2 2026-05-02 14:51 354K
20260502T12Z_MSC_RDPS_WindU_IsbL-0030_RLatLon0.09_PT040H.grib2 2026-05-02 14:51 356K
20260502T12Z_MSC_RDPS_WindU_IsbL-0050_RLatLon0.09_PT040H.grib2 2026-05-02 14:51 382K
20260502T12Z_MSC_RDPS_WindU_IsbL-0100_RLatLon0.09_PT040H.grib2 2026-05-02 14:51 435K
20260502T12Z_MSC_RDPS_WindU_IsbL-0150_RLatLon0.09_PT040H.grib2 2026-05-02 14:51 402K
20260502T12Z_MSC_RDPS_WindU_IsbL-0175_RLatLon0.09_PT040H.grib2 2026-05-02 14:51 329K
20260502T12Z_MSC_RDPS_WindU_IsbL-0200_RLatLon0.09_PT040H.grib2 2026-05-02 14:51 341K
20260502T12Z_MSC_RDPS_WindU_IsbL-0225_RLatLon0.09_PT040H.grib2 2026-05-02 14:51 347K
20260502T12Z_MSC_RDPS_WindU_IsbL-0250_RLatLon0.09_PT040H.grib2 2026-05-02 14:51 349K
20260502T12Z_MSC_RDPS_WindU_IsbL-0275_RLatLon0.09_PT040H.grib2 2026-05-02 14:51 363K
20260502T12Z_MSC_RDPS_WindU_IsbL-0300_RLatLon0.09_PT040H.grib2 2026-05-02 14:51 458K
20260502T12Z_MSC_RDPS_WindU_IsbL-0350_RLatLon0.09_PT040H.grib2 2026-05-02 14:51 467K
20260502T12Z_MSC_RDPS_WindU_IsbL-0400_RLatLon0.09_PT040H.grib2 2026-05-02 14:51 471K
20260502T12Z_MSC_RDPS_WindU_IsbL-0450_RLatLon0.09_PT040H.grib2 2026-05-02 14:51 472K
20260502T12Z_MSC_RDPS_WindU_IsbL-0500_RLatLon0.09_PT040H.grib2 2026-05-02 14:51 472K
20260502T12Z_MSC_RDPS_WindU_IsbL-0550_RLatLon0.09_PT040H.grib2 2026-05-02 14:51 455K
20260502T12Z_MSC_RDPS_WindU_IsbL-0600_RLatLon0.09_PT040H.grib2 2026-05-02 14:51 463K
20260502T12Z_MSC_RDPS_WindU_IsbL-0650_RLatLon0.09_PT040H.grib2 2026-05-02 14:51 480K
20260502T12Z_MSC_RDPS_WindU_IsbL-0700_RLatLon0.09_PT040H.grib2 2026-05-02 14:51 502K
20260502T12Z_MSC_RDPS_WindU_IsbL-0750_RLatLon0.09_PT040H.grib2 2026-05-02 14:51 528K
20260502T12Z_MSC_RDPS_WindU_IsbL-0800_RLatLon0.09_PT040H.grib2 2026-05-02 14:51 584K
20260502T12Z_MSC_RDPS_WindU_IsbL-0850_RLatLon0.09_PT040H.grib2 2026-05-02 14:51 635K
20260502T12Z_MSC_RDPS_WindU_IsbL-0875_RLatLon0.09_PT040H.grib2 2026-05-02 14:51 654K
20260502T12Z_MSC_RDPS_WindU_IsbL-0900_RLatLon0.09_PT040H.grib2 2026-05-02 14:51 661K
20260502T12Z_MSC_RDPS_WindU_IsbL-0925_RLatLon0.09_PT040H.grib2 2026-05-02 14:51 666K
20260502T12Z_MSC_RDPS_WindU_IsbL-0950_RLatLon0.09_PT040H.grib2 2026-05-02 14:51 662K
20260502T12Z_MSC_RDPS_WindU_IsbL-0970_RLatLon0.09_PT040H.grib2 2026-05-02 14:51 653K
20260502T12Z_MSC_RDPS_WindU_IsbL-0985_RLatLon0.09_PT040H.grib2 2026-05-02 14:51 648K
20260502T12Z_MSC_RDPS_WindU_IsbL-1000_RLatLon0.09_PT040H.grib2 2026-05-02 14:51 781K
20260502T12Z_MSC_RDPS_WindU_IsbL-1015_RLatLon0.09_PT040H.grib2 2026-05-02 14:51 773K
20260502T12Z_MSC_RDPS_WindV_AGL-10m_RLatLon0.09_PT040H.grib2 2026-05-02 14:51 430K
20260502T12Z_MSC_RDPS_WindV_AGL-120m_RLatLon0.09_PT040H.grib2 2026-05-02 14:51 416K
20260502T12Z_MSC_RDPS_WindV_AGL-40m_RLatLon0.09_PT040H.grib2 2026-05-02 14:51 536K
20260502T12Z_MSC_RDPS_WindV_AGL-80m_RLatLon0.09_PT040H.grib2 2026-05-02 14:51 418K
20260502T12Z_MSC_RDPS_WindV_IsbL-0001_RLatLon0.09_PT040H.grib2 2026-05-02 14:51 247K
20260502T12Z_MSC_RDPS_WindV_IsbL-0005_RLatLon0.09_PT040H.grib2 2026-05-02 14:51 287K
20260502T12Z_MSC_RDPS_WindV_IsbL-0010_RLatLon0.09_PT040H.grib2 2026-05-02 14:51 299K
20260502T12Z_MSC_RDPS_WindV_IsbL-0020_RLatLon0.09_PT040H.grib2 2026-05-02 14:51 316K
20260502T12Z_MSC_RDPS_WindV_IsbL-0030_RLatLon0.09_PT040H.grib2 2026-05-02 14:51 318K
20260502T12Z_MSC_RDPS_WindV_IsbL-0050_RLatLon0.09_PT040H.grib2 2026-05-02 14:51 346K
20260502T12Z_MSC_RDPS_WindV_IsbL-0100_RLatLon0.09_PT040H.grib2 2026-05-02 14:51 338K
20260502T12Z_MSC_RDPS_WindV_IsbL-0150_RLatLon0.09_PT040H.grib2 2026-05-02 14:51 403K
20260502T12Z_MSC_RDPS_WindV_IsbL-0175_RLatLon0.09_PT040H.grib2 2026-05-02 14:51 329K
20260502T12Z_MSC_RDPS_WindV_IsbL-0200_RLatLon0.09_PT040H.grib2 2026-05-02 14:51 341K
20260502T12Z_MSC_RDPS_WindV_IsbL-0225_RLatLon0.09_PT040H.grib2 2026-05-02 14:51 372K
20260502T12Z_MSC_RDPS_WindV_IsbL-0250_RLatLon0.09_PT040H.grib2 2026-05-02 14:51 374K
20260502T12Z_MSC_RDPS_WindV_IsbL-0275_RLatLon0.09_PT040H.grib2 2026-05-02 14:51 386K
20260502T12Z_MSC_RDPS_WindV_IsbL-0300_RLatLon0.09_PT040H.grib2 2026-05-02 14:51 382K
20260502T12Z_MSC_RDPS_WindV_IsbL-0350_RLatLon0.09_PT040H.grib2 2026-05-02 14:51 386K
20260502T12Z_MSC_RDPS_WindV_IsbL-0400_RLatLon0.09_PT040H.grib2 2026-05-02 14:51 365K
20260502T12Z_MSC_RDPS_WindV_IsbL-0450_RLatLon0.09_PT040H.grib2 2026-05-02 14:51 367K
20260502T12Z_MSC_RDPS_WindV_IsbL-0500_RLatLon0.09_PT040H.grib2 2026-05-02 14:51 368K
20260502T12Z_MSC_RDPS_WindV_IsbL-0550_RLatLon0.09_PT040H.grib2 2026-05-02 14:51 471K
20260502T12Z_MSC_RDPS_WindV_IsbL-0600_RLatLon0.09_PT040H.grib2 2026-05-02 14:51 477K
20260502T12Z_MSC_RDPS_WindV_IsbL-0650_RLatLon0.09_PT040H.grib2 2026-05-02 14:51 494K
20260502T12Z_MSC_RDPS_WindV_IsbL-0700_RLatLon0.09_PT040H.grib2 2026-05-02 14:51 513K
20260502T12Z_MSC_RDPS_WindV_IsbL-0750_RLatLon0.09_PT040H.grib2 2026-05-02 14:51 539K
20260502T12Z_MSC_RDPS_WindV_IsbL-0800_RLatLon0.09_PT040H.grib2 2026-05-02 14:51 582K
20260502T12Z_MSC_RDPS_WindV_IsbL-0850_RLatLon0.09_PT040H.grib2 2026-05-02 14:51 632K
20260502T12Z_MSC_RDPS_WindV_IsbL-0875_RLatLon0.09_PT040H.grib2 2026-05-02 14:51 652K
20260502T12Z_MSC_RDPS_WindV_IsbL-0900_RLatLon0.09_PT040H.grib2 2026-05-02 14:51 660K
20260502T12Z_MSC_RDPS_WindV_IsbL-0925_RLatLon0.09_PT040H.grib2 2026-05-02 14:51 659K
20260502T12Z_MSC_RDPS_WindV_IsbL-0950_RLatLon0.09_PT040H.grib2 2026-05-02 14:51 657K
20260502T12Z_MSC_RDPS_WindV_IsbL-0970_RLatLon0.09_PT040H.grib2 2026-05-02 14:51 655K
20260502T12Z_MSC_RDPS_WindV_IsbL-0985_RLatLon0.09_PT040H.grib2 2026-05-02 14:51 650K
20260502T12Z_MSC_RDPS_WindV_IsbL-1000_RLatLon0.09_PT040H.grib2 2026-05-02 14:51 783K
20260502T12Z_MSC_RDPS_WindV_IsbL-1015_RLatLon0.09_PT040H.grib2 2026-05-02 14:51 775K